[[{"header":{"parameterUnit":"m.s-1","parameterCategory":1,"la1":30.2991,"la2":30.254,"lo1":-89.0895,"lo2":-89.0444,"dy":0.0017,"dx":0.0017,"nx":28,"ny":28,"refTime":"2024-05-11T21:00:00:Z","depth":0,"parameterNumber":2,"parameterNumberName":"U-component_of_WINDS"},"data":[0,0,0,0,0,0,0,0,0,0,0,0,0,0,0,0,0,0,0,0,0,0,0,0,0,0,0,0,0,0,0,0,0,0,0,0,0,0,0,0,0,0,0,0,0,0,0,0,0,0,0,0,0,0,0,0,0,0,-1.1193,-1.1193,0,-1.1196,-1.1196,-1.1196,-1.1194,-1.1194,-1.1194,-1.1194,-1.1197,-1.1197,-1.1198,0,0,0,0,0,0,0,0,0,0,0,0,0,-1.1183,-1.1184,-1.1193,-1.1193,-1.1193,-1.1196,-1.1196,-1.1196,-1.1194,-1.1194,-1.1194,-1.1194,-1.1197,-1.1197,-1.1198,0,0,0,0,0,0,0,0,0,0,0,0,0,-1.1187,-1.1184,-1.1193,-1.1192,-1.1192,-1.1196,-1.1196,-1.1196,-1.1194,-1.1194,-1.1194,-1.1194,-1.1197,-1.1197,-1.1198,-1.1202,0,0,-1.1199,-1.1199,0,0,0,0,0,0,0,0,-1.1187,-1.1188,-1.1192,-1.1192,-1.1192,-1.1195,-1.1194,-1.1198,-1.1194,-1.1194,-1.1194,-1.1194,-1.1197,-1.1197,-1.1198,-1.1203,-1.1203,-1.1199,-1.1199,-1.1199,-1.1199,0,0,0,0,0,0,0,-1.1187,-1.1188,-1.1194,-1.1192,-1.1192,-1.1192,-1.1192,-1.1195,-1.1196,-1.1194,-1.1193,-1.1194,-1.1197,-1.1198,-1.1198,-1.1203,-1.1199,-1.1199,-1.1199,-1.1199,-1.1211,-1.1211,0,0,0,0,0,0,-1.1187,-1.1187,-1.1194,-1.1194,-1.1189,-1.1192,-1.1192,-1.1194,-1.1196,-1.1196,-1.1194,-1.1194,-1.1197,-1.1198,-1.1198,-1.1203,-1.1199,-1.1199,-1.1199,-1.1211,-1.1211,-1.1211,0,0,0,0,0,0,-1.1187,-1.1187,-1.1194,-1.1191,-1.1192,-1.1192,-1.1194,-1.1194,-1.1195,-1.1196,-1.1196,-1.1195,-1.1197,-1.1198,-1.1201,-1.1203,-1.1199,-1.1199,-1.1211,-1.1211,-1.1211,-1.1214,0,0,0,0,0,0,-1.1186,-1.1187,-1.1189,-1.1191,-1.1192,-1.1197,-1.1194,-1.1194,-1.1196,-1.1196,-1.1197,-1.1197,-1.1197,-1.1201,-1.1201,-1.1204,-1.12,-1.121,-1.1211,-1.1211,-1.1214,-1.1214,-1.1215,0,0,0,0,0,-1.1186,-1.119,-1.1189,-1.119,-1.1194,-1.1197,-1.1198,-1.1198,-1.1196,-1.1198,-1.1198,-1.1197,-1.1203,-1.1201,-1.1202,-1.1204,-1.121,-1.1211,-1.1211,-1.1213,-1.1214,-1.1215,0,0,0,0,0,0,-1.1188,-1.119,-1.119,-1.1194,-1.1196,-1.1197,-1.1199,-1.1199,-1.12,-1.12,-1.12,-1.12,-1.1204,-1.1204,-1.1202,-1.1209,-1.1206,-1.1207,-1.1208,-1.1209,-1.1209,-1.1209,-1.12,0,0,0,0,0,-1.119,-1.1192,-1.1193,-1.1197,-1.1198,-1.1199,-1.12,-1.12,-1.1201,-1.1202,-1.1203,-1.1204,-1.1206,-1.1207,-1.1209,-1.1214,-1.1214,-1.1216,-1.1216,-1.1217,-1.1217,-1.1219,-1.122,-1.1212,-1.1212,-1.1212,0,0,-1.1192,-1.1193,-1.1195,-1.1198,-1.1199,-1.1202,-1.1199,-1.1202,-1.1204,-1.1202,-1.1206,-1.1206,-1.1208,-1.1211,-1.1213,-1.1212,-1.1219,-1.1217,-1.1217,-1.1217,-1.1219,-1.122,-1.1221,-1.1212,-1.1212,-1.1212,0,0,-1.1197,-1.1199,-1.1202,-1.1203,-1.1205,-1.1205,-1.1206,-1.1207,-1.1208,-1.1211,-1.121,-1.1212,-1.1216,-1.1216,-1.1217,-1.1223,-1.1222,-1.1224,-1.1226,-1.1228,-1.1229,-1.1229,-1.1231,-1.1231,-1.1224,-1.1224,-1.1224,0,-1.12,-1.1204,-1.1204,-1.1206,-1.1208,-1.1206,-1.1209,-1.1211,-1.1213,-1.1214,-1.1212,-1.1217,-1.1218,-1.1222,-1.1223,-1.1224,-1.1225,-1.1223,-1.1229,-1.1229,-1.123,-1.1231,-1.1232,-1.1224,-1.1224,-1.1224,-1.1224,0,-1.1206,-1.1209,-1.1211,-1.1214,-1.1215,-1.1218,-1.1218,-1.122,-1.1219,-1.122,-1.1223,-1.1224,-1.1226,-1.1227,-1.1227,-1.1231,-1.123,-1.1229,-1.1226,-1.123,-1.1232,-1.1232,-1.1224,-1.1224,-1.1224,-1.1224,0,0,-1.1213,-1.1215,-1.1216,-1.1217,-1.1219,-1.1221,-1.1223,-1.1225,-1.1227,-1.1228,-1.123,-1.1233,-1.1232,-1.1233,-1.1233,-1.1235,-1.1238,-1.1233,-1.1233,-1.1234,-1.1242,-1.1243,-1.1244,-1.1238,-1.1238,-1.1238,-1.1242,0,-1.1218,-1.1223,-1.1223,-1.1228,-1.123,-1.1229,-1.1231,-1.1232,-1.1232,-1.1234,-1.1234,-1.1237,-1.1235,-1.1236,-1.1237,-1.1238,-1.124,-1.1237,-1.1239,-1.1239,-1.1239,-1.1245,-1.1245,-1.1249,-1.1243,-1.1243,-1.1243,0,-1.1225,-1.1227,-1.1231,-1.1232,-1.1233,-1.1235,-1.1237,-1.1239,-1.124,-1.124,-1.1241,-1.1241,-1.1243,-1.1241,-1.1244,-1.1242,-1.1243,-1.1244,-1.1244,-1.1244,-1.1241,-1.1244,-1.125,-1.1251,-1.1244,-1.1244,-1.1244,0,-1.1229,-1.1232,-1.1236,-1.1236,-1.1238,-1.1239,-1.124,-1.1241,-1.1242,-1.1244,-1.1244,-1.1246,-1.1247,-1.1248,-1.1248,-1.1246,-1.1251,-1.1249,-1.1251,-1.1251,-1.1252,-1.1252,-1.1258,-1.1253,-1.1253,-1.1253,-1.1253,0,-1.1234,-1.1237,-1.1237,-1.1239,-1.1242,-1.1242,-1.1245,-1.1245,-1.1246,-1.1248,-1.1247,-1.1249,-1.1249,-1.125,-1.125,-1.1253,-1.1253,-1.1253,-1.1253,-1.1253,-1.1253,-1.1253,-1.1253,-1.1253,-1.1253,-1.1253,-1.1253,0,-1.1239,-1.1239,-1.1243,-1.1244,-1.1244,-1.1246,-1.1247,-1.1249,-1.1249,-1.1251,-1.1252,-1.1252,-1.1254,-1.1254,-1.1256,-1.1256,-1.1259,-1.1258,-1.1258,-1.1258,-1.126,-1.1259,-1.1266,-1.1267,-1.1262,-1.1262,-1.1262,0,-1.1242,-1.1244,-1.1246,-1.1247,-1.1248,-1.125,-1.1251,-1.1251,-1.1252,-1.1253,-1.1254,-1.1256,-1.1258,-1.126,-1.1261,-1.1262,-1.1262,-1.1264,-1.1262,-1.1262,-1.1261,-1.1261,-1.1261,-1.1264,-1.1264,-1.1265,-1.1265,0,-1.1248,-1.1248,-1.125,-1.1251,-1.1253,-1.1254,-1.1255,-1.1256,-1.1256,-1.1257,-1.1259,-1.126,-1.1262,-1.1264,-1.1265,-1.1266,-1.1265,-1.1265,-1.1266,-1.1265,-1.1265,-1.1265,-1.1259,-1.1265,-1.1265,-1.1265,-1.1265,-1.1265,-1.1252,-1.1253,-1.1254,-1.1256,-1.1257,-1.1258,-1.126,-1.126,-1.1262,-1.1263,-1.1263,-1.1265,-1.1266,-1.1268,-1.1269,-1.127,-1.1269,-1.127,-1.127,-1.127,-1.127,-1.1265,-1.127,-1.127,-1.127,-1.127,-1.127,0,-1.1257,-1.1257,-1.1259,-1.1261,-1.1262,-1.1261,-1.1263,-1.1264,-1.1266,-1.1267,-1.1268,-1.127,-1.1271,-1.1272,-1.1273,-1.1274,-1.1274,-1.1275,-1.1274,-1.1275,-1.1271,-1.127,-1.1275,-1.1275,-1.1275,-1.1275,-1.1275,-1.1275,-1.126,-1.1262,-1.1262,-1.1265,-1.1266,-1.1268,-1.1268,-1.1269,-1.127,-1.1272,-1.1274,-1.1274,-1.1275,-1.1276,-1.1278,-1.1278,-1.1278,-1.1279,-1.1279,-1.1275,-1.1275,-1.1274,-1.1274,-1.1279,-1.1279,-1.1282,-1.1282,-1.1282]},{"header":{"parameterUnit":"m.s-1","parameterCategory":1,"la1":30.2991,"la2":30.254,"lo1":-89.0895,"lo2":-89.0444,"dy":0.0017,"dx":0.0017,"nx":28,"ny":28,"refTime":"2024-05-11T21:00:00:Z","depth":0,"parameterNumber":3,"parameterNumberName":"V-component_of_WINDS"},"data":[0,0,0,0,0,0,0,0,0,0,0,0,0,0,0,0,0,0,0,0,0,0,0,0,0,0,0,0,0,0,0,0,0,0,0,0,0,0,0,0,0,0,0,0,0,0,0,0,0,0,0,0,0,0,0,0,0,0,-1.0157,-1.016,0,-1.0396,-1.0399,-1.0402,-1.056,-1.0561,-1.0562,-1.0563,-1.0806,-1.0811,-1.0817,0,0,0,0,0,0,0,0,0,0,0,0,0,-0.9836,-0.9841,-1.0157,-1.016,-1.0163,-1.0396,-1.0399,-1.0402,-1.056,-1.0561,-1.0562,-1.0563,-1.0804,-1.081,-1.0817,0,0,0,0,0,0,0,0,0,0,0,0,0,-1.0015,-0.9842,-1.0156,-1.027,-1.0282,-1.0395,-1.0399,-1.0403,-1.0559,-1.0561,-1.0563,-1.0564,-1.0802,-1.081,-1.0818,-1.0837,0,0,-1.0843,-1.0847,0,0,0,0,0,0,0,0,-1.0004,-1.0026,-1.025,-1.0262,-1.0276,-1.045,-1.0375,-1.0548,-1.0559,-1.0454,-1.0563,-1.0565,-1.0686,-1.0704,-1.0745,-1.0848,-1.0858,-1.0844,-1.0849,-1.0852,-1.0855,0,0,0,0,0,0,0,-0.9992,-1.0017,-1.0252,-1.0253,-1.0269,-1.0308,-1.0335,-1.0408,-1.0558,-1.0463,-1.0475,-1.0502,-1.0693,-1.0737,-1.0752,-1.0862,-1.0844,-1.0851,-1.0856,-1.0859,-1.0993,-1.0992,0,0,0,0,0,0,-0.9962,-1.0006,-1.0244,-1.0259,-1.0142,-1.0312,-1.0343,-1.0392,-1.0558,-1.0584,-1.05,-1.0508,-1.0722,-1.0742,-1.0761,-1.0794,-1.0852,-1.086,-1.0865,-1.0994,-1.0993,-1.0991,0,0,0,0,0,0,-0.9954,-0.9982,-1.0234,-1.0136,-1.0171,-1.0316,-1.0371,-1.0396,-1.044,-1.0586,-1.0613,-1.0517,-1.0724,-1.075,-1.0817,-1.0805,-1.0864,-1.0871,-1.0996,-1.0994,-1.0992,-1.0859,0,0,0,0,0,0,-0.9944,-0.9978,-0.9986,-1.0135,-1.0175,-1.0286,-1.037,-1.04,-1.0454,-1.0467,-1.0608,-1.0633,-1.0727,-1.0804,-1.0825,-1.0817,-1.0877,-1.0998,-1.0995,-1.0993,-1.0865,-1.0853,-1.0842,0,0,0,0,0,-0.9932,-0.9939,-0.9986,-1.0014,-1.0189,-1.0285,-1.0308,-1.0416,-1.0452,-1.0462,-1.0556,-1.0629,-1.0803,-1.0809,-1.0835,-1.0829,-1.0999,-1.0996,-1.0993,-1.087,-1.0855,-1.0842,0,0,0,0,0,0,-0.9784,-0.996,-1.0015,-1.0069,-1.0161,-1.0311,-1.0327,-1.0397,-1.048,-1.0488,-1.0619,-1.0649,-1.0703,-1.0773,-1.0778,-1.0856,-1.091,-1.0911,-1.0808,-1.0795,-1.0783,-1.0765,-1.0884,0,0,0,0,0,-0.9758,-0.9822,-0.9972,-1.0006,-1.0049,-1.018,-1.0225,-1.0301,-1.0401,-1.044,-1.0539,-1.0633,-1.0709,-1.0756,-1.0834,-1.0877,-1.091,-1.0885,-1.0874,-1.0863,-1.0863,-1.0891,-1.0882,-1.0981,-1.0981,-1.0981,0,0,-0.9705,-0.9809,-0.9841,-0.9979,-1.0059,-1.0121,-1.0211,-1.0273,-1.0321,-1.045,-1.0519,-1.0595,-1.0708,-1.0763,-1.0793,-1.0823,-1.0843,-1.0859,-1.085,-1.0856,-1.0887,-1.0877,-1.0869,-1.0979,-1.0979,-1.098,0,0,-0.9639,-0.9724,-0.9762,-0.9841,-0.9961,-1.0048,-1.0056,-1.0197,-1.0252,-1.0325,-1.0423,-1.0481,-1.0609,-1.0686,-1.0742,-1.0706,-1.0777,-1.0728,-1.0667,-1.0693,-1.0685,-1.0679,-1.0665,-1.0659,-1.0728,-1.0727,-1.0727,0,-0.9557,-0.9655,-0.9772,-0.9829,-0.9887,-1.0008,-1.0047,-1.0117,-1.0256,-1.0293,-1.0326,-1.049,-1.0574,-1.0649,-1.064,-1.0682,-1.0696,-1.0712,-1.0677,-1.0672,-1.0667,-1.0656,-1.0651,-1.0721,-1.0721,-1.0722,-1.0723,0,-0.9548,-0.9615,-0.9631,-0.9763,-0.9823,-0.987,-0.9994,-1.004,-1.0111,-1.0194,-1.0267,-1.0373,-1.0475,-1.0498,-1.0568,-1.0583,-1.0599,-1.0652,-1.0709,-1.0649,-1.0641,-1.0638,-1.0711,-1.0713,-1.0715,-1.0717,0,0,-0.9394,-0.9591,-0.9595,-0.9657,-0.9799,-0.9853,-0.9905,-1.0006,-1.0043,-1.0135,-1.0182,-1.0289,-1.034,-1.0403,-1.0482,-1.0505,-1.0469,-1.0557,-1.0561,-1.0536,-1.0493,-1.045,-1.0443,-1.0518,-1.0517,-1.0517,-1.0483,0,-0.9349,-0.9451,-0.9558,-0.9622,-0.9685,-0.9801,-0.9848,-0.9939,-1.0019,-1.0084,-1.0172,-1.0245,-1.0307,-1.0346,-1.0374,-1.0467,-1.0462,-1.0472,-1.0562,-1.0564,-1.0529,-1.0439,-1.0395,-1.0357,-1.048,-1.048,-1.048,0,-0.9309,-0.9397,-0.9466,-0.9604,-0.9634,-0.9673,-0.9774,-0.9835,-0.9942,-0.9999,-1.0069,-1.0154,-1.0216,-1.0266,-1.0352,-1.0356,-1.04,-1.0452,-1.0453,-1.0464,-1.0517,-1.0447,-1.0348,-1.0341,-1.0476,-1.0476,-1.0476,0,-0.9189,-0.9324,-0.9384,-0.9433,-0.9594,-0.9619,-0.9688,-0.9796,-0.985,-0.9938,-0.9974,-1.0068,-1.0119,-1.019,-1.0298,-1.0324,-1.0372,-1.0431,-1.042,-1.0417,-1.0424,-1.0421,-1.0328,-1.0453,-1.0453,-1.0454,-1.0454,0,-0.9126,-0.9164,-0.9332,-0.9368,-0.9414,-0.9538,-0.958,-0.9659,-0.9754,-0.9808,-0.9915,-0.9963,-1.0103,-1.0168,-1.0253,-1.0311,-1.0333,-1.038,-1.0402,-1.037,-1.0364,-1.0399,-1.0404,-1.0452,-1.0453,-1.0453,-1.0453,0,-0.8999,-0.9113,-0.9185,-0.9333,-0.9371,-0.9398,-0.9524,-0.9564,-0.965,-0.9716,-0.9739,-0.9874,-0.9956,-1.0071,-1.0188,-1.0245,-1.0291,-1.0327,-1.0254,-1.0267,-1.0249,-1.0249,-1.0175,-1.0171,-1.0298,-1.0297,-1.0295,0,-0.8951,-0.8983,-0.9134,-0.9178,-0.9243,-0.9312,-0.9368,-0.9491,-0.9544,-0.9669,-0.9693,-0.9783,-0.9862,-0.9987,-1.0095,-1.0185,-1.0223,-1.0191,-1.0237,-1.0204,-1.0222,-1.0218,-1.0221,-1.0179,-1.0177,-1.0175,-1.0174,0,-0.8853,-0.8908,-0.8984,-0.908,-0.9143,-0.9225,-0.9311,-0.9341,-0.9482,-0.9537,-0.9622,-0.9683,-0.9803,-0.989,-0.9995,-1.0066,-1.0143,-1.0159,-1.0161,-1.0128,-1.0084,-1.0107,-1.0223,-1.016,-1.0161,-1.0162,-1.0163,-1.0164,-0.8764,-0.8798,-0.8909,-0.8991,-0.9069,-0.9147,-0.9192,-0.9284,-0.9357,-0.9465,-0.9533,-0.9614,-0.9722,-0.9871,-0.9938,-1.0003,-1.0035,-1.0038,-1.0038,-1.0037,-1.0025,-1.0075,-1.0023,-1.0023,-1.0024,-1.0024,-1.0025,0,-0.8671,-0.8749,-0.8822,-0.894,-0.9004,-0.9073,-0.9172,-0.9221,-0.9291,-0.9385,-0.946,-0.9558,-0.9644,-0.976,-0.9854,-0.9884,-0.9922,-0.9905,-0.9903,-0.9918,-0.9992,-0.998,-0.9873,-0.9873,-0.9873,-0.9873,-0.9873,-0.9873,-0.863,-0.8691,-0.8759,-0.886,-0.8938,-0.9019,-0.907,-0.9142,-0.9218,-0.9322,-0.9395,-0.947,-0.9573,-0.9676,-0.9757,-0.979,-0.9819,-0.979,-0.9832,-0.9899,-0.9913,-0.9926,-0.9915,-0.9796,-0.9796,-0.9753,-0.9753,-0.9752]}]]